Location: Frankfurt+am+Main
(50.1100°N, 8.4815°E)
Time: 02:14:49
(UTC+01:00)

ISS - Pass Details

Date: 07 January 2018
Orbit: 401 x 406 km, 51.6° (Epoch: 17 January)

Event Time Altitude Azimuth Distance (km) Brightness Sun altitude
Exits shadow 07:30:48 11° 285° (WNW) 1,416 -1.7 -8.2°
Maximum altitude 07:33:58 81° 199° (SSW) 417 -3.8 -7.7°
Drops below altitude 10° 07:37:15 10° 112° (ESE) 1,466 0.8 -7.2°
Sets 07:39:20 0° 111° (ESE) 2,325 2.5 -6.9°
